Weather Roundup
Issued by NWS

Home | Current Version | Previous Version | Text Only | Print | Product List | Glossary On
Versions: 1 2 3 4 5 6 7 8 9 10 11 12 13 14 15 16 17 18 19 20 21 22 23 24 25 26 27 28 29 30 31 32 33 34 35 36 37 38 39 40 41 42 43 44 45 46 47 48 49 50
000
NZUS93 KARX 171359
HRRWXR

CURRENT HOURLY OBSERVATIONS ACROSS
MUCH OF THE UPPER MISSISSIPPI VALLEY
NATIONAL WEATHER SERVICE LA CROSSE WI
800 AM CST FRI NOV 17 2017


...SOUTHEAST MINNESOTA...


CITY           SKY/WX    TMP DP  RH WIND       PRES   REMARKS
ROCHESTER      CLOUDY    34  31  88 S24G30    29.74F WCI  21
ROCHESTER/MAYO CLOUDY    35  31  85 SE17G26   29.75F WCI  25
WINONA         CLOUDY    36  30  80 S7        29.82F WCI  30
AUSTIN         CLOUDY    34  30  86 S12G18    29.75S WCI  25
ALBERT LEA     CLOUDY    34  30  86 S14G24    29.72S FOG     WCI  24
DODGE CENTER   CLOUDY    34  30  86 S23G31    29.73F FOG     WCI  22
PRESTON        CLOUDY    33  29  86 S15G21    29.79S FOG     WCI  23
OWATONNA       CLOUDY    36  30  80 SE18G29   29.72R WCI  25
FARIBAULT      CLOUDY    36  32  87 SE16G22   29.72S WCI  26
$$

...ELSEWHERE IN MINNESOTA...


CITY           SKY/WX    TMP DP  RH WIND       PRES   REMARKS
MINNEAPOLIS    DRIZZLE   36  34  92 S10       29.72F FOG     WCI  28
INTNL FALLS    CLOUDY    33  26  75 S8        29.62R HAZE    WCI  26
DULUTH         FRZ DRZL  30  29  96 S12       29.71S FOG     WCI  20
RED WING       CLOUDY    37  28  70 S10G20    29.76S WCI  30
REDWOOD FALLS  CLOUDY    38  30  73 SE12      29.63F WCI  30
MANKATO        CLOUDY    36  32  85 S14       29.69F WCI  27
WORTHINGTON    CLOUDY    42  36  79 S13       29.61S
FAIRMONT       CLOUDY    38  33  82 S13       29.67S WCI  30
$$

...SOUTHWEST WISCONSIN...


CITY           SKY/WX    TMP DP  RH WIND       PRES   REMARKS
LA CROSSE      CLOUDY    38  30  73 S14       29.84F WCI  30
PRAIRIE DU CHI CLOUDY    35  29  78 SE12G20   29.90R WCI  27
BOSCOBEL       CLOUDY    37  29  72 VRB3      29.93F
LONE ROCK      CLOUDY    35  30  82 SE9       29.94F WCI  28
PLATTEVILLE    CLOUDY    34  32  92 SE13G20   29.94F WCI  25
FORT MC COY    MOCLDY    35  30  82 SE9       29.87F WCI  27
MAUSTON-NEW LI CLOUDY    34  29  82 SE14G20   29.90F WCI  25
VIROQUA        PTSUNNY   33  32  96 SE23      29.83F WCI  20
WIS DELLS      CLOUDY    33  29  84 S14G23    29.94F WCI  24
$$

...ELSEWHERE IN WISCONSIN...


CITY           SKY/WX    TMP DP  RH WIND       PRES   REMARKS
MILWAUKEE      CLOUDY    37  31  78 S12       30.06F WCI  29
MADISON        CLOUDY    34  29  82 S17G26    29.98F WCI  23
GREEN BAY      CLOUDY    37  35  92 S13       30.01F WCI  29
EAU CLAIRE     NOT AVBL
BLACK RVR FLS  PTSUNNY   36  27  70 S8        29.85F WCI  29
MEDFORD        CLOUDY    31  27  86 SE14G21   29.84S WCI  21
WAUSAU         CLOUDY    32  28  85 SE13G21   29.88F WCI  22
WIS RAPIDS     CLOUDY    34  28  79 S9G20     29.92F WCI  27
MARSHFIELD     CLOUDY    33  27  78 SE17G25   29.85F WCI  22
RICE LAKE      CLOUDY    34  28  80 SE16      29.78F WCI  23
$$

...NORTHEAST IOWA...


CITY           SKY/WX    TMP DP  RH WIND       PRES   REMARKS
WATERLOO       CLOUDY    35  30  82 SE17G25   29.80F WCI  25
DUBUQUE        CLOUDY    32  29  88 S21G31    29.90F WCI  20
DECORAH        CLOUDY    34  30  86 S15G24    29.81R WCI  24
MASON CITY     CLOUDY    35  31  85 S23G30    29.74F WCI  23
CHARLES CITY   CLOUDY    36  36 100 SE13G22   29.78F WCI  27
OELWEIN        CLOUDY    34  34 100 S22G31    29.82F WCI  22
$$

...ELSEWHERE IN IOWA...


CITY           SKY/WX    TMP DP  RH WIND       PRES   REMARKS
DES MOINES     CLOUDY    44  36  73 SE16      29.77F
IOWA CITY      CLOUDY    36  33  89 SE15      29.92F WCI  27
FORT DODGE     CLOUDY    41  34  76 S10G18    29.70F
MARSHALLTOWN   CLOUDY    37  33  85 SE18      29.79F WCI  27
CEDAR RAPIDS   CLOUDY    35  32  88 SE14      29.88F FOG     WCI  26
$$

...NORTHERN ILLINOIS...


CITY           SKY/WX    TMP DP  RH WIND       PRES   REMARKS
CHICAGO-OHARE  CLOUDY    36  30  79 S13       30.10R WCI  27
CHICAGO-MIDWAY CLOUDY    36  30  80 S12G21    30.11F WCI  27
MOLINE         CLOUDY    36  30  79 SE12G24   29.95F WCI  28
ROCKFORD       CLOUDY    33  29  85 S17G28    30.04F WCI  22
PEORIA         CLOUDY    35  31  85 SE13G28   30.03F WCI  26
$$

NOTE: "FAIR" INDICATES FEW OR NO CLOUDS BELOW 12,000 FEET WITH NO
SIGNIFICANT WEATHER AND/OR OBSTRUCTIONS TO VISIBILITY. WIND
SPEEDS ARE IN MILES-PER-HOUR.




USA.gov is the U.S. government's official web portal to all federal, state and local government web resources and services.